Regional Weather Roundup
Issued by NWS

Home | Current Version | Previous Version | Text Only | Print | Product List | Glossary On
Versions: 1 2 3 4 5 6 7 8 9 10 11 12 13 14 15 16 17 18 19 20 21 22 23 24 25 26 27 28 29 30 31 32 33 34 35 36 37 38 39 40 41 42 43 44 45 46 47 48 49 50
000
ASUS42 KFFC 252303
RWRGA
WEATHER ROUNDUP FOR GEORGIA
NATIONAL WEATHER SERVICE PEACHTREE CITY GA
700 PM EDT SAT MAR 25 2017

NOTE: "FAIR" INDICATES FEW OR NO CLOUDS BELOW 12,000 FEET WITH NO
SIGNIFICANT WEATHER AND/OR OBSTRUCTIONS TO VISIBILITY.

* = USE WITH CAUTION. THE STATIONS MARKED WITH AN ASTERISK MAY NOT
REPORT WEATHER SUCH AS PRECIPITATION, FOG, OR THUNDER AND ARE NOT
QUALITY CONTROLLED BY NWS.

THE REMARK "TC" DENOTES TEMPERATURE READING IN DEGREES CELSIUS.

GAZ001>058-260000-
NORTH GEORGIA

CITY           SKY/WX    TMP DP  RH WIND       PRES   REMARKS
ATLANTA        MOSUNNY   74  50  42 SE13      30.09F
ATHENS         CLOUDY    72  51  47 SE3       30.13S
CHAMBLEE       PTSUNNY   72  49  44 SE10G20   30.09F
PEACHTREE CITY MOSUNNY   74  50  42 SE15G21   30.09F
ROME           MOSUNNY   75  49  39 SE12      30.02F
WEST ATLANTA   MOSUNNY   74  48  39 S13       30.07F
GAINESVILLE    CLOUDY    70  50  49 SE6       30.14F
CARTERSVILLE   SUNNY     73  49  42 SE9G17    30.06F


CITY           SKY/WX    TMP DP  RH WIND       PRES   REMARKS
DALTON*        CLOUDY    72  50  46 SE14      30.05S
LAWRENCEVILLE* MOCLDY    72  50  46 SE7       30.12F
MARIETTA       PTSUNNY   73  50  44 SE12      30.08F
KENNESAW*      MOSUNNY   72  48  43 S10       30.07S
CANTON*        SUNNY     72  37  28 SE7G16    30.11S
$$

GAZ059>098-102>109-260000-
CENTRAL GEORGIA

CITY           SKY/WX    TMP DP  RH WIND       PRES   REMARKS
AUGUSTA-BUSH   MOCLDY    76  51  41 SE9       30.13F
AUGUSTA-DANIEL MOCLDY    75  48  38 SE7       30.14F
COLUMBUS       SUNNY     78  50  37 S9        30.04F
MACON          MOCLDY    76  50  40 S10       30.10F
ROBINS AFB     PTCLDY    76  51  41 SE13      30.09F


CITY           SKY/WX    TMP DP  RH WIND       PRES   REMARKS
LAGRANGE*      MOSUNNY   76  56  50 SE8       30.06R
SYLVANIA*      CLEAR    N/A N/A N/A SE8       30.17F
MILLEDGEVILLE* MOCLDY    75  55  50 CALM      30.11S
$$

GAZ099>101-110>166-260000-
SOUTH GEORGIA

CITY           SKY/WX    TMP DP  RH WIND       PRES   REMARKS
SAVANNAH       PTCLDY    71  52  50 SE15      30.19S
VALDOSTA       PTCLDY    77  53  43 SE6       30.09F
ALMA           PTCLDY    74  56  53 SE9G17    30.13S
ST SIMONS      CLEAR     69  59  70 E8        30.18S
FT STEWART     CLEAR     71  55  58 SE9       30.15S
ALBANY         PTSUNNY   79  54  41 S7        30.10S
HUNTER AFB     CLEAR     71  57  61 SE13      30.16F
MOODY AFB      PTCLDY    77  51  39 SE6       30.09S
BRUNSWICK      CLEAR     72  61  68 SE12      30.18F


CITY           SKY/WX    TMP DP  RH WIND       PRES   REMARKS
BAINBRIDGE*    MOSUNNY   77  54  44 S12G17    30.09R
MOULTRIE*      PTCLDY    77  52  41 CALM      30.10S
VIDALIA*       PTCLDY    75  54  46 SE7       30.14S
WAYCROSS*      CLOUDY    77  61  57 SE10      30.13S
DOUGLAS*       MOCLDY    75  52  43 S7        30.13S
$$



USA.gov is the U.S. government's official web portal to all federal, state and local government web resources and services.